Вернуться в каталог

STARLINK-32866

АктивенСвязьVLEO
NORAD 62858·PAYLOAD·🇺🇸 United States

Запущен Feb 1, 2025 с Vandenberg Space Force Base

Loading…

Ближайшие Пролёты (ближайшие 24 часа)

TLE

СвежийSource: CelesTrak SupGP

Эпоха: Sep 15, 2026, 03:08 UTC

1 62858C 25022E   26258.13104167  .00049181  00000+0  14526-2 0  2586
2 62858  53.1586 325.1632 0001225  88.2739  71.8211 15.34376562    11

Отслеживайте STARLINK-32866 в реальном времени с AllMySat

Download on the App Store